Location: Étouvelles
(49.5207°N, 3.5808°E)
Time: 19:47:53
(UTC+00:00)

Cosmos 1140 Rocket - Visible Passes

Search period start: 01 October 2023 00:00
Search period end: 11 October 2023 00:00
Orbit: 742 x 766 km, 74.1° (Epoch: 30 September)

Date Brightness Start Highest point End Pass type
(mag) Time Alt. Az. Time Alt. Az. Time Alt. Az.
01 Oct 6.3 03:48:31 10° N 03:51:56 17° NE 03:55:21 10° E visible
01 Oct 5.3 18:34:14 12° ENE 18:34:14 12° ENE 18:35:10 10° ENE visible
01 Oct 3.5 20:13:58 68° N 20:13:58 68° N 20:18:32 10° NNE visible
01 Oct 6.0 21:53:41 14° WNW 21:55:55 18° NW 21:59:22 10° N visible
02 Oct 6.5 03:08:24 10° NNE 03:10:11 12° NE 03:11:58 10° ENE visible
02 Oct 4.6 04:48:13 10° NNW 04:53:19 49° ENE 04:58:24 10° SE visible
02 Oct 3.4 19:27:10 10° S 19:32:11 56° ESE 19:37:17 10° NNE visible
02 Oct 5.4 21:10:00 10° WSW 21:14:19 26° NW 21:18:41 10° N visible
03 Oct 5.4 04:07:16 10° N 04:11:54 31° NE 04:16:31 10° ESE visible
03 Oct 4.1 18:46:40 10° SSE 18:51:12 32° ESE 18:55:48 10° NE visible
03 Oct 4.6 20:27:59 10° SW 20:32:51 41° WNW 20:37:47 10° NNE visible
03 Oct 6.6 22:15:51 10° NW 22:16:09 10° NW 22:16:27 10° NNW visible
04 Oct 6.1 03:26:30 10° N 03:30:22 20° NE 03:34:12 10° E visible
04 Oct 3.5 05:07:32 10° NNW 05:12:48 82° WSW 05:18:03 10° SSE visible
04 Oct 4.7 18:06:49 10° SE 18:10:21 19° E 18:13:55 10° NE visible
04 Oct 3.7 19:46:24 10° SSW 19:51:32 69° WNW 19:56:45 10° NNE visible
04 Oct 6.2 21:31:24 10° WNW 21:34:20 15° NW 21:37:18 10° N visible
05 Oct 6.4 02:46:04 10° N 02:48:39 14° NE 02:51:15 10° ENE visible
05 Oct 4.1 04:26:23 10° NNW 04:31:35 60° ENE 04:36:46 10° SE visible
05 Oct 3.3 19:05:15 10° SSW 19:10:22 71° ESE 19:15:33 10° NNE visible
05 Oct 5.7 20:48:39 10° W 20:52:41 22° NW 20:56:45 10° N visible
06 Oct 5.0 03:45:23 10° N 03:50:14 36° ENE 03:55:04 10° ESE visible
06 Oct 3.8 18:24:32 10° S 18:29:20 40° ESE 18:34:10 10° NE visible
06 Oct 5.0 20:06:27 10° WSW 20:11:10 34° NW 20:15:55 10° N visible
07 Oct 5.8 03:04:32 10° N 03:08:44 24° NE 03:12:56 10° ESE visible
07 Oct 3.5 04:45:47 10° NNW 04:51:00 67° WSW 04:56:11 10° S visible
07 Oct 4.5 17:44:23 10° SSE 17:48:25 24° E 17:52:29 10° NE visible
07 Oct 4.1 19:24:43 10° SW 19:29:47 56° WNW 19:34:56 10° NNE visible
07 Oct 6.4 21:10:28 10° WNW 21:12:47 13° NW 21:15:07 10° NNW visible
08 Oct 6.3 02:23:54 10° N 02:27:06 16° NE 02:30:16 10° E visible
08 Oct 3.7 04:04:34 10° NNW 04:09:50 74° ENE 04:15:04 10° SSE visible
08 Oct 3.4 18:43:23 10° SSW 18:48:34 87° ESE 18:53:48 10° NNE visible
08 Oct 6.0 20:27:24 10° W 20:31:04 19° NW 20:34:46 10° N visible
09 Oct 6.6 01:44:05 10° NNE 01:45:18 11° NE 01:46:30 10° NE visible
09 Oct 4.6 03:23:30 10° NNW 03:28:32 44° ENE 03:33:32 10° SE visible
09 Oct 4.2 05:05:34 10° NW 05:10:09 31° W 05:14:42 10° SSW visible
09 Oct 3.6 18:02:29 10° S 18:07:27 50° ESE 18:12:29 10° NNE visible
09 Oct 5.4 19:45:01 10° WSW 19:49:29 29° NW 19:54:01 10° N visible
10 Oct 5.4 02:42:34 10° N 02:47:05 28° NE 02:51:35 10° ESE visible
10 Oct 3.6 04:24:03 10° NNW 04:29:10 53° WSW 04:34:15 10° S visible
10 Oct 4.5 19:03:05 10° SW 19:08:03 46° WNW 19:13:05 10° NNE visible
10 Oct 6.6 20:49:50 10° NW 20:51:15 11° NW 20:52:40 10° NNW visible
